When you browse on this site, cookies collect data to enhance your experience and personalize the content and advertising you see.
Visit our Privacy Policy to learn more. By continuing to use the site, you agree to this use of cookies and data.
  • In Österreich
  • Länderverzeichnis
  • Für 7 Tage
  • Wassertemperatur
  • Wetterkarte
  • News
  • Widgets
  • user-avatar
    Anmelden

    Stündliche Wetter Tyrgowischte

    Heute, 3 Juni, Mittwoch

    Zeit Temperatur Niederschläge Wind Luftdruck Luftfeuchtigkeit
    00:00 +10°C° 0.1 mm 1 m/S 738 mmHg 93%
    01:00 +9°C° 0.1 mm 1 m/S 738 mmHg 93%
    02:00 +9°C° 0 mm 1 m/S 738 mmHg 93%
    03:00 +9°C° 0 mm 1 m/S 738 mmHg 93%
    04:00 +8°C° 0 mm 1 m/S 738 mmHg 94%
    05:00 +8°C° 0 mm 1 m/S 738 mmHg 94%
    06:00 +10°C° 0 mm 1 m/S 738 mmHg 89%
    07:00 +12°C° 0 mm 2 m/S 738 mmHg 84%
    08:00 +14°C° 0 mm 2 m/S 738 mmHg 78%
    09:00 +15°C° 0 mm 2 m/S 738 mmHg 71%
    10:00 +17°C° 0 mm 2 m/S 738 mmHg 64%
    11:00 +18°C° 0 mm 2 m/S 738 mmHg 57%
    12:00 +19°C° 0.1 mm 2 m/S 738 mmHg 55%
    13:00 +19°C° 0.1 mm 2 m/S 738 mmHg 52%
    14:00 +20°C° 0.1 mm 2 m/S 738 mmHg 49%
    15:00 +20°C° 0.2 mm 2 m/S 738 mmHg 53%
    16:00 +19°C° 0.2 mm 2 m/S 738 mmHg 57%
    17:00 +19°C° 0.2 mm 2 m/S 737 mmHg 61%
    18:00 +17°C° 0.2 mm 2 m/S 737 mmHg 68%
    19:00 +16°C° 0.2 mm 2 m/S 737 mmHg 74%
    20:00 +14°C° 0.2 mm 1 m/S 737 mmHg 81%
    21:00 +13°C° 0 mm 1 m/S 738 mmHg 82%
    22:00 +13°C° 0 mm 1 m/S 738 mmHg 83%
    23:00 +12°C° 0 mm 1 m/S 738 mmHg 84%

    Morgen, 4 Juni, Donnerstag

    Zeit Temperatur Niederschläge Wind Luftdruck Luftfeuchtigkeit
    00:00 +12°C° 0 mm 1 m/S 738 mmHg 85%
    01:00 +11°C° 0 mm 1 m/S 738 mmHg 85%
    02:00 +11°C° 0 mm 1 m/S 738 mmHg 85%
    03:00 +11°C° 0 mm 1 m/S 738 mmHg 85%
    04:00 +11°C° 0 mm 1 m/S 737 mmHg 85%
    05:00 +11°C° 0 mm 1 m/S 737 mmHg 84%
    06:00 +13°C° 0 mm 1 m/S 738 mmHg 79%
    07:00 +15°C° 0 mm 1 m/S 738 mmHg 74%
    08:00 +18°C° 0 mm 2 m/S 738 mmHg 69%
    09:00 +19°C° 0 mm 2 m/S 738 mmHg 63%
    10:00 +21°C° 0 mm 3 m/S 738 mmHg 58%
    11:00 +23°C° 0 mm 4 m/S 739 mmHg 52%
    12:00 +23°C° 0.1 mm 4 m/S 739 mmHg 51%
    13:00 +25°C° 0.1 mm 4 m/S 739 mmHg 51%
    14:00 +26°C° 0.1 mm 5 m/S 739 mmHg 50%
    15:00 +26°C° 0 mm 4 m/S 739 mmHg 52%
    16:00 +26°C° 0 mm 4 m/S 739 mmHg 54%
    17:00 +25°C° 0 mm 4 m/S 738 mmHg 56%
    18:00 +22°C° 0 mm 3 m/S 739 mmHg 63%
    19:00 +20°C° 0 mm 3 m/S 739 mmHg 70%
    20:00 +18°C° 0 mm 3 m/S 739 mmHg 76%
    21:00 +18°C° 0 mm 3 m/S 739 mmHg 79%
    22:00 +17°C° 0 mm 2 m/S 739 mmHg 83%
    23:00 +16°C° 0 mm 2 m/S 739 mmHg 86%

    übermorgen, 5 Juni, Freitag

    Zeit Temperatur Niederschläge Wind Luftdruck Luftfeuchtigkeit
    00:00 +16°C° 0 mm 2 m/S 739 mmHg 86%
    01:00 +15°C° 0 mm 2 m/S 739 mmHg 87%
    02:00 +15°C° 0 mm 2 m/S 739 mmHg 88%
    03:00 +15°C° 0 mm 2 m/S 739 mmHg 88%
    04:00 +14°C° 0 mm 2 m/S 739 mmHg 89%
    05:00 +14°C° 0 mm 2 m/S 739 mmHg 89%
    06:00 +16°C° 0 mm 2 m/S 739 mmHg 84%
    07:00 +18°C° 0 mm 2 m/S 739 mmHg 78%
    08:00 +20°C° 0 mm 2 m/S 740 mmHg 72%
    09:00 +22°C° 0 mm 3 m/S 739 mmHg 67%
    10:00 +25°C° 0 mm 4 m/S 739 mmHg 62%
    11:00 +26°C° 0 mm 5 m/S 739 mmHg 57%
    12:00 +27°C° 0 mm 6 m/S 739 mmHg 56%
    13:00 +27°C° 0 mm 7 m/S 739 mmHg 55%
    14:00 +28°C° 0 mm 8 m/S 739 mmHg 54%
    15:00 +27°C° 0 mm 7 m/S 738 mmHg 57%
    16:00 +26°C° 0 mm 7 m/S 738 mmHg 59%
    17:00 +26°C° 0 mm 7 m/S 738 mmHg 61%
    18:00 +23°C° 0 mm 6 m/S 738 mmHg 63%
    19:00 +21°C° 0 mm 6 m/S 738 mmHg 64%
    20:00 +20°C° 0 mm 6 m/S 738 mmHg 66%
    21:00 +19°C° 0 mm 6 m/S 738 mmHg 66%
    22:00 +19°C° 0 mm 5 m/S 738 mmHg 66%
    23:00 +17°C° 0 mm 5 m/S 739 mmHg 65%

    6 Juni, Samstag

    Zeit Temperatur Niederschläge Wind Luftdruck Luftfeuchtigkeit
    00:00 +17°C° 0 mm 4 m/S 739 mmHg 68%
    01:00 +17°C° 0 mm 3 m/S 739 mmHg 70%
    02:00 +16°C° 0 mm 3 m/S 739 mmHg 73%
    03:00 +16°C° 0 mm 2 m/S 739 mmHg 75%
    04:00 +16°C° 0 mm 2 m/S 739 mmHg 77%
    05:00 +16°C° 0 mm 2 m/S 739 mmHg 79%
    06:00 +18°C° 0 mm 2 m/S 739 mmHg 75%
    07:00 +20°C° 0 mm 1 m/S 740 mmHg 71%
    08:00 +22°C° 0 mm 1 m/S 740 mmHg 67%
    09:00 +24°C° 0 mm 1 m/S 740 mmHg 60%
    10:00 +26°C° 0 mm 2 m/S 741 mmHg 53%
    11:00 +27°C° 0 mm 3 m/S 741 mmHg 47%
    12:00 +27°C° 0 mm 3 m/S 741 mmHg 48%
    13:00 +26°C° 0 mm 3 m/S 740 mmHg 50%
    14:00 +26°C° 0 mm 3 m/S 740 mmHg 51%
    15:00 +26°C° 0 mm 3 m/S 740 mmHg 53%
    16:00 +25°C° 0 mm 4 m/S 740 mmHg 56%
    17:00 +23°C° 0 mm 4 m/S 740 mmHg 59%
    18:00 +22°C° 0 mm 3 m/S 740 mmHg 64%
    19:00 +20°C° 0 mm 2 m/S 740 mmHg 69%
    20:00 +18°C° 0 mm 2 m/S 740 mmHg 75%
    21:00 +18°C° 0 mm 2 m/S 740 mmHg 76%
    22:00 +18°C° 0 mm 2 m/S 740 mmHg 76%
    23:00 +17°C° 0 mm 2 m/S 741 mmHg 77%

    7 Juni, Sonntag

    Zeit Temperatur Niederschläge Wind Luftdruck Luftfeuchtigkeit
    00:00 +17°C° 0 mm 2 m/S 740 mmHg 78%
    01:00 +16°C° 0 mm 2 m/S 740 mmHg 79%
    02:00 +15°C° 0 mm 2 m/S 740 mmHg 80%
    03:00 +15°C° 0 mm 1 m/S 740 mmHg 79%
    04:00 +15°C° 0 mm 1 m/S 740 mmHg 78%
    05:00 +15°C° 0 mm 1 m/S 740 mmHg 77%
    06:00 +18°C° 0 mm 1 m/S 740 mmHg 71%
    07:00 +21°C° 0 mm 1 m/S 740 mmHg 66%
    08:00 +23°C° 0 mm 1 m/S 741 mmHg 60%
    09:00 +24°C° 0 mm 1 m/S 741 mmHg 57%
    10:00 +25°C° 0 mm 1 m/S 741 mmHg 54%
    11:00 +26°C° 0 mm 2 m/S 741 mmHg 52%
    12:00 +27°C° 0 mm 2 m/S 740 mmHg 51%
    13:00 +27°C° 0 mm 2 m/S 740 mmHg 50%
    14:00 +28°C° 0 mm 2 m/S 740 mmHg 49%
    15:00 +28°C° 0 mm 2 m/S 740 mmHg 50%
    16:00 +28°C° 0 mm 1 m/S 739 mmHg 51%
    17:00 +28°C° 0 mm 1 m/S 739 mmHg 52%
    18:00 +26°C° 0 mm 1 m/S 739 mmHg 59%
    19:00 +24°C° 0 mm 1 m/S 739 mmHg 66%
    20:00 +20°C° 0 mm 0 m/S 740 mmHg 73%
    21:00 +19°C° 0 mm 0 m/S 740 mmHg 75%
    22:00 +18°C° 0 mm 0 m/S 740 mmHg 78%
    23:00 +18°C° 0 mm 0 m/S 740 mmHg 80%

    8 Juni, Montag

    Zeit Temperatur Niederschläge Wind Luftdruck Luftfeuchtigkeit
    00:00 +18°C° 0 mm 0 m/S 740 mmHg 81%
    01:00 +17°C° 0 mm 0 m/S 740 mmHg 82%
    02:00 +17°C° 0 mm 0 m/S 740 mmHg 83%
    03:00 +17°C° 0 mm 0 m/S 740 mmHg 83%
    04:00 +17°C° 0 mm 0 m/S 740 mmHg 84%
    05:00 +16°C° 0 mm 0 m/S 739 mmHg 84%
    06:00 +19°C° 0 mm 0 m/S 740 mmHg 79%
    07:00 +21°C° 0 mm 0 m/S 740 mmHg 73%
    08:00 +25°C° 0 mm 1 m/S 740 mmHg 68%
    09:00 +26°C° 0.5 mm 1 m/S 740 mmHg 63%
    10:00 +27°C° 0.5 mm 2 m/S 740 mmHg 59%
    11:00 +28°C° 0.5 mm 2 m/S 740 mmHg 54%
    12:00 +29°C° 0.2 mm 2 m/S 740 mmHg 53%
    13:00 +29°C° 0.2 mm 2 m/S 740 mmHg 51%
    14:00 +29°C° 0.2 mm 2 m/S 739 mmHg 49%
    15:00 +29°C° 0.4 mm 2 m/S 739 mmHg 54%
    16:00 +28°C° 0.4 mm 2 m/S 739 mmHg 59%
    17:00 +27°C° 0.4 mm 2 m/S 739 mmHg 64%
    18:00 +25°C° 0.6 mm 2 m/S 739 mmHg 72%
    19:00 +23°C° 0.6 mm 2 m/S 739 mmHg 79%
    20:00 +20°C° 0.6 mm 2 m/S 739 mmHg 87%
    21:00 +20°C° 0.1 mm 1 m/S 739 mmHg 89%
    22:00 +19°C° 0.1 mm 1 m/S 739 mmHg 91%
    23:00 +19°C° 0.1 mm 1 m/S 739 mmHg 92%
    Mehr zeigen